Starlink 30585

operational
NORAD ID: 58063 Int'l Des: 2023-158 Owner: SPXS Country: US Constellation: starlink
LEOCIRCULAR

关于 Starlink 30585

正在加载描述...

实时位置

正在加载3D地球...

即将过境

高度历史

Altitude vs Time

uPlot chart will show altitude changes over time

两行轨道根数

1 58063U 23158N 25259.70814263 .00000446 00000-0 48123-4 0 9991
2 58063 43.0034 255.3877 0001292 273.7803 86.2892 15.02536000107363
Epoch: Sep 16, 2025 • Age: 29 hours

当前状态

高度 564.8 km
速度 7.58 km/s
星下点 -25.85°S, 102.33°W
发射日期 Oct 13, 2023
运行时间 1.9 years
类型 internet

技术详情

分类 Payload
质量 730.00 kg
干质量 700.00 kg
总质量 730.00 kg
长度 0.30 m
直径 4.10 m
跨度 29.00 m
形状 Box + pan
制造商 SPXS
平台类型 Starlink V2M
阶段状态 In Orbit
所有者/国家 SPXS/US

大型星座

Loading constellations...